2020 JM
ephemeris date magn radius delta ra dec elong phase
Today16 Oct 202529.31.246 AU1.988 AU15h23m-19°59'31.1°24.4°
2020 JM - 2025-10-16
astro.vanbuitenen.nl


 
-1 year
-1 month
-1 day
Now
+1 day
+1 month
+1 year

The interactive orbit chart above shows the body's path through the solar system and its position at the given date. Green and blue lines are shown perpendicular to the ecliptic plane: Green if the path is above the ecliptic plane, blue if it is below. (Left-click and drag to rotate the view; Right-click and drag to move the view; Use scroll wheel to zoom in our out.)

The orbital elements of 2020 JM are:

            e (Eccentricity)                : 0.2964465
            a (Semimajor axis)              : 1.2116289
            i (Inclination)                 : 5.17624
            Ω (Longitude of ascending node) : 53.42562
            ω (Argument of perihelion)      : 92.30833
            M (Mean anomaly)                : 317.35777
            Epoch                           : 2025 May 05

            L (Longitude of perihelion)     : -34.25661
            B (Latitude of perihelion)      : 5.17203
            P (Orbital period in years)     : 1.33            
        

The light curve chart below shows the estimated development of the minor planet's magnitude.


The all-sky chart below shows the path of the minor planet over the same period as the light curve. The current position is marked yellow.





The following chart shows the path of the minor planet in the next few days. The field of view is optimized for (~10x50) binoculars and finderscopes. A more printer-friendly version of the same chart can be found below.




Ephemerides:
Date       Time       RA (2000)    DEC (2000)    delta   radius  elong  phase   PA    magn
2025-10-16 00:00 UT   15 23 27.4   -19 59 03     1.988    1.246   31.1   24.4   107   29.3 
2025-10-16 17:06 UT   15 25 57.7   -20 09 40     1.993    1.249   31.0   24.3   107   29.3 
2025-10-17 00:00 UT   15 26 58.3   -20 13 54     1.995    1.250   31.0   24.2   107   29.3 
2025-10-18 00:00 UT   15 30 29.0   -20 28 25     2.002    1.255   30.8   24.0   106   29.3 
2025-10-19 00:00 UT   15 33 59.4   -20 42 37     2.008    1.259   30.7   23.8   106   29.3 
2025-10-20 00:00 UT   15 37 29.6   -20 56 29     2.015    1.264   30.6   23.6   106   29.3 
2025-10-21 00:00 UT   15 40 59.6   -21 10 02     2.022    1.268   30.4   23.4   106   29.4 
2025-10-22 00:00 UT   15 44 29.3   -21 23 15     2.029    1.272   30.3   23.2   105   29.4 
2025-10-23 00:00 UT   15 47 58.8   -21 36 09     2.036    1.277   30.1   23.0   105   29.4 
2025-10-24 00:00 UT   15 51 28.1   -21 48 43     2.043    1.281   30.0   22.8   105   29.4 
2025-10-25 00:00 UT   15 54 57.1   -22 00 58     2.049    1.285   29.8   22.6   105   29.4 
2025-10-26 00:00 UT   15 58 25.8   -22 12 54     2.056    1.290   29.6   22.4   105   29.4 


    Terminology:
            
    delta:  distance between minor planet and earth in AU
    radius: distance between minor planet and sun in AU
    magn:   magnitude (brightness) estimate    
    ra:     right ascension in hours (24h = 360deg)
    dec:    declination in degrees
    elong:  elongation in degrees (angle sun-earth-minor planet)    
    phase:  phase angle in degrees (angle sun-minor planet-earth)        
    AU:     Astronomical Unit (mean distance between earth and sun: 149597870.7 km
    

Orbital elements provided by the MPC (Minor Planet Center).
Calculations by a modified version of AAPlus, a C# implementation of the AA+ project by PJ Naughter from the algorithms presented in the book "Astronomical Algorithms" by Jean Meeus.
NGC2000 dso catalog and star labels from VizieR as provided by the Strasbourg astronomical Data Center.
Tycho2 catalog from the ESO archive.